| time (UTC) | temp F | wind direction | speed MPH | gust MPH | rain 1hr in | rain 24hr in | rain mn in | humidity % | barometer mb |
| 20260505080037 | 80 | 60 | 5.0 | 13.0 | 0.00 | 0.00 | 0.00 | 82 | 1010.7 |
| 20260505074518 | 80 | 76 | 6.0 | 11.0 | 0.00 | 0.00 | 0.00 | 82 | 1010.7 |
| 20260505073026 | 80 | 12 | 7.0 | 17.0 | 0.00 | 0.00 | 0.00 | 81 | 1010.9 |
| 20260505071512 | 80 | 101 | 5.0 | 11.0 | 0.00 | 0.00 | 0.00 | 80 | 1011.0 |
| 20260505070010 | 80 | 121 | 6.0 | 14.0 | 0.00 | 0.00 | 0.00 | 80 | 1011.0 |
| 20260505064508 | 80 | 113 | 9.0 | 14.0 | 0.00 | 0.00 | 0.00 | 80 | 1011.3 |
| 20260505063005 | 80 | 84 | 6.0 | 13.0 | 0.00 | 0.00 | 0.00 | 80 | 1011.5 |
| 20260505061502 | 80 | 117 | 3.0 | 10.0 | 0.00 | 0.00 | 0.00 | 81 | 1011.6 |
| 20260505054559 | 80 | 132 | 2.0 | 10.0 | 0.00 | 0.00 | 0.00 | 81 | 1011.8 |
| 20260505053057 | 80 | 119 | 9.0 | 12.0 | 0.00 | 0.00 | 0.00 | 81 | 1012.1 |
| 20260505051557 | 80 | 119 | 7.0 | 10.0 | 0.00 | 0.00 | 0.00 | 80 | 1012.1 |
| 20260505041555 | 83 | 99 | 3.0 | 11.0 | 0.00 | 0.00 | 0.00 | 79 | 1012.5 |
| 20260505034554 | 83 | 163 | 6.0 | 12.0 | 0.00 | 0.00 | 0.00 | 79 | 1012.7 |
| 20260505033056 | 83 | 92 | 6.0 | 12.0 | 0.00 | 0.00 | 0.00 | 79 | 1012.6 |
| 20260505031559 | 83 | 120 | 3.0 | 13.0 | 0.00 | 0.00 | 0.00 | 79 | 1012.6 |
| 20260505030058 | 83 | 140 | 6.0 | 10.0 | 0.00 | 0.00 | 0.00 | 79 | 1012.3 |
| 20260505024554 | 83 | 111 | 6.0 | 14.0 | 0.00 | 0.00 | 0.00 | 79 | 1012.0 |
| 20260505023052 | 83 | 130 | 4.0 | 13.0 | 0.00 | 0.00 | 0.00 | 78 | 1011.8 |
| 20260505020052 | 84 | 71 | 12.0 | 19.0 | 0.00 | 0.00 | 0.00 | 77 | 1011.6 |
| 20260505014603 | 84 | 65 | 14.0 | 18.0 | 0.00 | 0.00 | 0.00 | 76 | 1011.3 |
| 20260505013050 | 84 | 19 | 13.0 | 20.0 | 0.00 | 0.00 | 0.00 | 76 | 1010.8 |
| 20260505011552 | 84 | 48 | 16.0 | 25.0 | 0.00 | 0.00 | 0.00 | 75 | 1010.5 |
| 20260505010049 | 85 | 40 | 13.0 | 18.0 | 0.00 | 0.00 | 0.00 | 74 | 1010.1 |
| 20260505004554 | 85 | 58 | 17.0 | 22.0 | 0.00 | 0.00 | 0.00 | 74 | 1009.8 |
| 20260505003047 | 85 | 12 | 13.0 | 22.0 | 0.00 | 0.00 | 0.00 | 73 | 1009.7 |
| 20260505001547 | 86 | 24 | 21.0 | 26.0 | 0.00 | 0.00 | 0.00 | 72 | 1009.7 |
| 20260505000052 | 87 | 12 | 13.0 | 20.0 | 0.00 | 0.00 | 0.00 | 71 | 1009.8 |
| 20260504234544 | 88 | 27 | 14.0 | 20.0 | 0.00 | 0.00 | 0.00 | 70 | 1009.7 |
| 20260504233044 | 88 | 5 | 10.0 | 18.0 | 0.00 | 0.00 | 0.00 | 69 | 1009.4 |
| 20260504231543 | 89 | 16 | 12.0 | 22.0 | 0.00 | 0.00 | 0.00 | 67 | 1009.4 |
| 20260504230046 | 90 | 338 | 13.0 | 21.0 | 0.00 | 0.00 | 0.00 | 67 | 1009.6 |
| 20260504224547 | 91 | 19 | 15.0 | 22.0 | 0.00 | 0.00 | 0.00 | 65 | 1009.3 |
| 20260504223042 | 92 | 355 | 14.0 | 20.0 | 0.00 | 0.00 | 0.00 | 64 | 1009.4 |
| 20260504221542 | 94 | 39 | 17.0 | 22.0 | 0.00 | 0.00 | 0.00 | 60 | 1009.4 |
| 20260504220042 | 95 | 34 | 10.0 | 18.0 | 0.00 | 0.00 | 0.00 | 58 | 1009.3 |
| 20260504214551 | 96 | 43 | 14.0 | 19.0 | 0.00 | 0.00 | 0.00 | 58 | 1009.2 |
| 20260504213040 | 95 | 43 | 9.0 | 20.0 | 0.00 | 0.00 | 0.00 | 59 | 1009.4 |
| 20260504211538 | 96 | 28 | 12.0 | 23.0 | 0.00 | 0.00 | 0.00 | 58 | 1009.3 |
| 20260504210053 | 95 | 53 | 10.0 | 21.0 | 0.00 | 0.00 | 0.00 | 59 | 1009.4 |
| 20260504204552 | 96 | 5 | 13.0 | 18.0 | 0.00 | 0.00 | 0.00 | 58 | 1009.6 |
| 20260504203036 | 96 | 102 | 17.0 | 21.0 | 0.00 | 0.00 | 0.00 | 58 | 1009.7 |
| 20260504201532 | 94 | 355 | 9.0 | 19.0 | 0.00 | 0.00 | 0.00 | 60 | 1010.0 |
| 20260504200031 | 96 | 43 | 10.0 | 16.0 | 0.00 | 0.00 | 0.00 | 59 | 1010.2 |
| 20260504194530 | 95 | 29 | 13.0 | 23.0 | 0.00 | 0.00 | 0.00 | 61 | 1010.7 |
| 20260504193029 | 96 | 42 | 12.0 | 19.0 | 0.00 | 0.00 | 0.00 | 59 | 1010.4 |
| 20260504191525 | 96 | 55 | 13.0 | 19.0 | 0.00 | 0.00 | 0.00 | 59 | 1010.9 |
| 20260504184519 | 94 | 36 | 12.0 | 18.0 | 0.00 | 0.00 | 0.00 | 62 | 1011.3 |
| 20260504183018 | 95 | 355 | 3.0 | 12.0 | 0.00 | 0.00 | 0.00 | 61 | 1011.3 |
| 20260504181515 | 93 | 86 | 6.0 | 17.0 | 0.00 | 0.00 | 0.00 | 60 | 1011.6 |
| 20260504180013 | 94 | 18 | 3.0 | 10.0 | 0.00 | 0.00 | 0.00 | 60 | 1011.9 |
| 20260504174511 | 93 | 145 | 2.0 | 9.0 | 0.00 | 0.00 | 0.00 | 61 | 1012.2 |
| 20260504173009 | 93 | 346 | 4.0 | 8.0 | 0.00 | 0.00 | 0.00 | 61 | 1012.6 |
| 20260504171505 | 92 | 93 | 3.0 | 11.0 | 0.00 | 0.00 | 0.00 | 62 | 1012.7 |
| 20260504081549 | 79 | 38 | 11.0 | 17.0 | 0.00 | 0.00 | 0.00 | 86 | 1012.6 |